GW4712 Weather Reports


time (UTC)temp
C
wind
direction
speed
KPH
gust
KPH
rain 1hr
cm
rain 24hr
cm
rain mn
cm
humidity
%
barometer
mb
20260904141219 27 123 0.0 0.0 0.00 0.00 0.00 86 1017.3
20260904140714 27 225 0.0 0.0 0.00 0.00 0.00 86 1017.4
20260904140209 26 139 0.0 0.0 0.00 0.00 0.00 88 1017.5
20260904135708 26 138 0.0 0.0 0.00 0.00 0.00 88 1017.4
20260904135203 26 138 0.0 0.0 0.00 0.00 0.00 89 1017.5
20260904134659 26 51 0.0 0.0 0.00 0.00 0.00 90 1017.7
20260904134158 25 50 0.0 0.0 0.00 0.00 0.00 91 1017.6
20260904133653 25 50 0.0 0.0 0.00 0.00 0.00 93 1017.7
20260904133150 25 50 0.0 0.0 0.00 0.00 0.00 93 1017.8
20260904132649 24 50 0.0 0.0 0.00 0.00 0.00 94 1017.7
20260904132144 24 50 0.0 0.0 0.00 0.00 0.00 93 1017.8
20260904131643 24 50 0.0 0.0 0.00 0.00 0.00 93 1017.6
20260904131139 23 49 0.0 0.0 0.00 0.00 0.00 94 1017.9
20260904130638 23 51 0.0 0.0 0.00 0.00 0.00 95 1017.9
20260904130133 23 32 0.0 0.0 0.00 0.00 0.00 95 1018.0
20260904125629 23 204 0.0 0.0 0.00 0.00 0.00 96 1017.8
20260904125124 23 205 0.0 0.0 0.00 0.00 0.00 96 1017.8
20260904124619 22 205 0.0 0.0 0.00 0.00 0.00 97 1017.8
20260904124115 22 205 0.0 0.0 0.00 0.00 0.00 97 1017.7
20260904123615 22 206 0.0 0.0 0.00 0.00 0.00 98 1017.9
20260904123110 22 206 0.0 0.0 0.00 0.00 0.00 99 1017.7
20260904122606 21 206 0.0 0.0 0.00 0.00 0.00 99 1017.9
20260904122100 21 206 0.0 0.0 0.00 0.00 0.00 99 1017.8
20260904121555 21 206 0.0 0.0 0.00 0.00 0.00 99 1018.0
20260904121051 21 206 0.0 0.0 0.00 0.00 0.00 99 1017.9
20260904120547 21 206 0.0 0.0 0.00 0.00 0.00 99 1017.9
20260904120043 21 206 0.0 0.0 0.00 0.00 0.00 99 1017.9
20260904115538 20 206 0.0 0.0 0.00 0.00 0.00 99 1018.0
20260904115032 20 206 0.0 0.0 0.00 0.00 0.00 99 1018.1
20260904114527 20 206 0.0 0.0 0.00 0.00 0.00 99 1018.0
20260904114022 20 206 0.0 0.0 0.00 0.00 0.00 99 1017.8
20260904113521 20 206 0.0 0.0 0.00 0.00 0.00 99 1018.0
20260904113016 20 206 0.0 0.0 0.00 0.00 0.00 99 1017.7
20260904112511 20 206 0.0 0.0 0.00 0.00 0.00 99 1017.9
20260904112007 20 102 0.0 0.0 0.00 0.00 0.00 99 1018.0
20260904111503 20 103 0.0 0.0 0.00 0.00 0.00 99 1017.8
20260904110958 20 102 0.0 0.0 0.00 0.00 0.00 99 1017.8
20260904110457 20 102 0.0 0.0 0.00 0.00 0.00 99 1017.8
20260904105952 20 47 0.0 0.0 0.00 0.00 0.00 99 1017.7
20260904105447 20 140 0.0 0.0 0.00 0.00 0.00 99 1017.5
20260904104942 20 140 0.0 0.0 0.00 0.00 0.00 99 1017.1
20260904104442 20 140 0.0 0.0 0.00 0.00 0.00 99 1017.3
20260904103933 20 140 0.0 0.0 0.00 0.00 0.00 99 1017.1
20260904103428 20 140 0.0 0.0 0.00 0.00 0.00 99 1017.3
20260904102924 20 140 0.0 0.0 0.00 0.00 0.00 99 1017.2
20260904102420 20 139 0.0 0.0 0.00 0.00 0.00 99 1017.2
20260904101915 20 139 0.0 0.0 0.00 0.00 0.00 99 1017.1
20260904101412 20 140 0.0 0.0 0.00 0.00 0.00 99 1017.2
20260904100907 20 140 0.0 0.0 0.00 0.00 0.00 99 1016.9
20260904100402 20 140 0.0 0.0 0.00 0.00 0.00 99 1016.9
20260904095857 20 140 0.0 0.0 0.00 0.00 0.00 99 1016.8
20260904095352 20 140 0.0 0.0 0.00 0.00 0.00 99 1016.7
20260904094847 20 140 0.0 0.0 0.00 0.00 0.00 99 1016.5
20260904094342 20 140 0.0 0.0 0.00 0.00 0.00 99 1016.8
20260904093838 20 140 0.0 0.0 0.00 0.00 0.00 99 1016.8
20260904093338 20 140 0.0 0.0 0.00 0.00 0.00 99 1016.8
20260904092833 20 140 0.0 0.0 0.00 0.00 0.00 99 1016.6
20260904092330 20 140 0.0 0.0 0.00 0.00 0.00 99 1016.4
20260904091826 20 140 0.0 0.0 0.00 0.00 0.00 99 1016.5
20260904091321 20 140 0.0 0.0 0.00 0.00 0.00 99 1016.6
20260904090816 20 140 0.0 0.0 0.00 0.00 0.00 99 1016.5
20260904090312 20 140 0.0 0.0 0.00 0.00 0.00 99 1016.6
20260904085807 20 140 0.0 0.0 0.00 0.00 0.00 99 1016.8
20260904085305 20 140 0.0 0.0 0.00 0.00 0.00 99 1016.7
20260904084756 20 140 0.0 0.0 0.00 0.00 0.00 99 1016.7
20260904084252 20 140 0.0 0.0 0.00 0.00 0.00 99 1016.8
20260904083748 20 140 0.0 0.0 0.00 0.00 0.00 99 1016.8
20260904083244 20 140 0.0 0.0 0.00 0.00 0.00 99 1016.4
20260904082739 20 140 0.0 0.0 0.00 0.00 0.00 99 1016.5
20260904082234 20 140 0.0 0.0 0.00 0.00 0.00 99 1016.5
20260904081729 20 140 0.0 0.0 0.00 0.00 0.00 99 1016.5
20260904081225 20 140 0.0 0.0 0.00 0.00 0.00 99 1016.3
20260904080721 20 140 0.0 0.0 0.00 0.00 0.00 99 1016.5
20260904080216 20 140 0.0 0.0 0.00 0.00 0.00 99 1016.5
20260904075712 20 140 0.0 0.0 0.00 0.00 0.00 99 1016.5
20260904075206 20 140 0.0 0.0 0.00 0.00 0.00 99 1016.4
20260904074700 21 140 0.0 0.0 0.00 0.00 0.00 99 1016.5
20260904074154 21 140 0.0 0.0 0.00 0.00 0.00 99 1016.3
20260904073650 21 140 0.0 0.0 0.00 0.00 0.00 99 1016.4
20260904073146 21 140 0.0 0.0 0.00 0.00 0.00 99 1016.4
20260904072641 21 140 0.0 0.0 0.00 0.00 0.00 99 1016.4
20260904072136 21 140 0.0 0.0 0.00 0.00 0.00 99 1016.3
20260904071626 21 140 0.0 0.0 0.00 0.00 0.00 99 1016.3
20260904071120 21 140 0.0 0.0 0.00 0.00 0.00 99 1016.5
20260904070614 21 140 0.0 0.0 0.00 0.00 0.00 99 1016.4
20260904070109 21 140 0.0 0.0 0.00 0.00 0.00 99 1016.4
20260904065604 21 140 0.0 0.0 0.00 0.00 0.00 99 1016.4
20260904065101 21 140 0.0 0.0 0.00 0.00 0.00 99 1016.3
20260904064556 21 140 0.0 0.0 0.00 0.00 0.00 99 1016.5
20260904064056 21 140 0.0 0.0 0.00 0.00 0.00 99 1016.5
20260904063552 21 140 0.0 0.0 0.00 0.00 0.00 99 1016.4
20260904063047 21 139 0.0 0.0 0.00 0.00 0.00 99 1016.5
20260904062544 21 139 0.0 0.0 0.00 0.00 0.00 99 1016.7
20260904062044 21 140 0.0 0.0 0.00 0.00 0.00 99 1016.5
20260904061540 21 140 0.0 0.0 0.00 0.00 0.00 99 1016.7
20260904061036 21 140 0.0 0.0 0.00 0.00 0.00 99 1016.8
20260904060532 21 88 0.0 0.0 0.00 0.00 0.00 98 1016.8
20260904060028 21 88 0.0 0.0 0.00 0.00 0.00 98 1016.8
20260904055523 21 88 0.0 0.0 0.00 0.00 0.00 98 1016.9
20260904055018 21 88 0.0 0.0 0.00 0.00 0.00 98 1016.9
20260904054514 21 88 0.0 0.0 0.00 0.00 0.00 98 1017.1
20260904054010 21 87 0.0 0.0 0.00 0.00 0.00 98 1017.0
20260904053509 22 87 0.0 0.0 0.00 0.00 0.00 97 1017.2
20260904053004 22 87 0.0 0.0 0.00 0.00 0.00 97 1017.1
20260904052501 22 87 0.0 0.0 0.00 0.00 0.00 97 1017.2
20260904051956 22 88 0.0 0.0 0.00 0.00 0.00 97 1017.2
20260904051453 22 87 0.0 0.0 0.00 0.00 0.00 97 1017.2
20260904050952 22 88 0.0 0.0 0.00 0.00 0.00 97 1017.5
20260904050448 22 87 0.0 0.0 0.00 0.00 0.00 97 1017.2
20260904045943 22 87 0.0 0.0 0.00 0.00 0.00 96 1017.4
20260904045438 22 87 0.0 0.0 0.00 0.00 0.00 95 1017.5
20260904044933 22 82 0.0 0.0 0.00 0.00 0.00 95 1017.3
20260904044429 22 29 0.0 0.0 0.00 0.00 0.00 95 1017.6
20260904043925 23 27 0.0 0.0 0.00 0.00 0.00 94 1017.7
20260904043422 23 27 0.0 0.0 0.00 0.00 0.00 94 1017.9
20260904042917 23 27 0.0 0.0 0.00 0.00 0.00 92 1017.9
20260904042412 23 27 0.0 0.0 0.00 0.00 0.00 91 1017.7
20260904041907 23 27 0.0 0.0 0.00 0.00 0.00 90 1017.6
20260904041358 24 27 0.0 0.0 0.00 0.00 0.00 89 1017.6
20260904040854 24 27 0.0 0.0 0.00 0.00 0.00 88 1017.6
20260904040348 24 26 0.0 0.0 0.00 0.00 0.00 87 1017.6
20260904035845 24 26 0.0 0.0 0.00 0.00 0.00 87 1017.5
20260904035341 25 26 0.0 0.0 0.00 0.00 0.00 86 1017.6
20260904034839 25 26 0.0 0.0 0.00 0.00 0.00 85 1017.7
20260904034335 25 46 0.0 0.0 0.00 0.00 0.00 85 1017.4
20260904033831 25 89 0.0 0.0 0.00 0.00 0.00 85 1017.5
20260904033327 25 48 0.0 0.0 0.00 0.00 0.00 86 1017.4
20260904032823 26 348 0.0 0.0 0.00 0.00 0.00 85 1017.3
20260904032322 26 18 0.0 0.0 0.00 0.00 0.00 85 1017.4
20260904031817 26 356 0.0 0.0 0.00 0.00 0.00 89 1017.3
20260904031313 26 334 0.0 0.0 0.00 0.00 0.00 89 1017.1
20260904030808 26 21 0.0 0.0 0.00 0.00 0.00 87 1017.3
20260904030304 26 33 0.0 0.0 0.00 0.00 0.00 91 1017.3
20260904025800 25 318 0.0 0.0 0.00 0.00 0.00 98 1017.0
20260904025255 24 229 0.0 0.0 0.00 0.00 0.00 99 1017.3
20260904024749 24 229 0.0 0.0 0.00 0.00 0.00 99 1017.1
20260904024245 24 229 0.0 0.0 0.00 0.00 0.00 99 1017.0
20260904023741 24 229 0.0 0.0 0.00 0.00 0.00 99 1016.8
20260904023237 24 229 0.0 0.0 0.00 0.00 0.00 99 1016.9
20260904022736 25 229 0.0 0.0 0.00 0.00 0.00 99 1016.9
20260904022233 24 229 0.0 0.0 0.00 0.00 0.00 99 1017.0
20260904021729 24 229 0.0 0.0 0.00 0.00 0.00 99 1017.0
20260904021229 25 229 0.0 0.0 0.00 0.00 0.00 99 1016.9
20260904020725 25 229 0.0 0.0 0.00 0.00 0.00 99 1016.7
20260904020225 25 229 0.0 0.0 0.00 0.00 0.00 99 1016.7
20260904015723 25 229 0.0 0.0 0.00 0.00 0.00 99 1016.8
20260904015219 25 229 0.0 0.0 0.00 0.00 0.00 99 1017.0
20260904014717 25 229 0.0 0.0 0.00 0.00 0.00 99 1016.7
20260904014212 25 229 0.0 0.0 0.00 0.00 0.00 99 1016.7
20260904013704 25 229 0.0 0.0 0.00 0.00 0.00 99 1016.5
20260904013159 25 229 0.0 0.0 0.00 0.00 0.00 98 1016.4
20260904012655 25 229 0.0 0.0 0.00 0.00 0.00 98 1016.6
20260904012154 25 229 0.0 0.0 0.00 0.00 0.00 98 1016.6
20260904011653 25 229 0.0 0.0 0.00 0.00 0.00 98 1016.5
20260904011149 25 229 0.0 0.0 0.00 0.00 0.00 98 1016.4
20260904010644 25 229 0.0 0.0 0.00 0.00 0.00 98 1016.4
20260904010140 25 229 0.0 0.0 0.00 0.00 0.00 98 1016.3
20260904005635 25 229 0.0 0.0 0.00 0.00 0.00 97 1016.1
20260904005131 25 229 0.0 0.0 0.00 0.00 0.00 97 1016.4
20260904004626 25 229 0.0 0.0 0.00 0.00 0.00 97 1016.3
20260904004125 26 229 0.0 0.0 0.00 0.00 0.00 97 1016.5
20260904003622 26 229 0.0 0.0 0.00 0.00 0.00 97 1016.4
20260904003117 26 229 0.0 0.0 0.00 0.00 0.00 96 1016.4
20260904002613 26 229 0.0 0.0 0.00 0.00 0.00 96 1016.4
20260904002108 26 229 0.0 0.0 0.00 0.00 0.00 96 1016.2
20260904001603 26 229 0.0 0.0 0.00 0.00 0.00 96 1016.2
20260904001102 26 229 0.0 0.0 0.00 0.00 0.00 96 1016.1
20260904000556 26 229 0.0 0.0 0.00 0.00 0.00 95 1016.2
20260904000053 26 229 0.0 0.0 0.00 0.00 0.00 95 1016.3
20260903235553 26 229 0.0 0.0 0.00 0.00 0.00 94 1016.2
20260903235049 27 229 0.0 0.0 0.00 0.00 0.00 94 1016.3
20260903234544 27 229 0.0 0.0 0.00 0.00 0.00 93 1016.3
20260903234039 27 229 0.0 0.0 0.00 0.00 0.00 92 1016.4
20260903233535 27 229 0.0 0.0 0.00 0.00 0.00 92 1016.4
20260903233031 28 229 0.0 0.0 0.00 0.00 0.00 90 1016.4
20260903232526 28 229 0.0 0.0 0.00 0.00 0.00 89 1016.6
20260903232021 28 230 0.0 0.0 0.00 0.00 0.00 88 1016.6
20260903231515 29 230 0.0 0.0 0.00 0.00 0.00 86 1016.4
20260903231010 29 230 0.0 0.0 0.00 0.00 0.00 86 1016.3
20260903230506 29 230 0.0 0.0 0.00 0.00 0.00 86 1016.2
20260903230003 29 230 0.0 0.0 0.00 0.00 0.00 85 1016.2
20260903225457 29 230 0.0 0.0 0.00 0.00 0.00 84 1016.3
20260903224954 30 230 0.0 0.0 0.00 0.00 0.00 83 1015.9
20260903224449 30 230 0.0 0.0 0.00 0.00 0.00 79 1015.8
20260903223945 31 230 0.0 0.0 0.00 0.00 0.00 79 1015.9
20260903223444 31 231 0.0 0.0 0.00 0.00 0.00 77 1015.7
20260903222943 31 230 0.0 0.0 0.00 0.00 0.00 77 1015.8
20260903222438 31 231 0.0 0.0 0.00 0.00 0.00 75 1015.7
20260903221937 32 248 0.0 0.0 0.00 0.00 0.00 74 1015.7
20260903221432 32 249 0.0 0.0 0.00 0.00 0.00 71 1015.5
20260903220929 32 249 0.0 0.0 0.00 0.00 0.00 70 1015.6
20260903220424 32 249 0.0 0.0 0.00 0.00 0.00 73 1015.5
20260903215921 32 250 0.0 0.0 0.00 0.00 0.00 66 1015.1
20260903215419 33 244 0.0 0.0 0.00 0.00 0.00 65 1015.1
20260903214916 33 243 0.0 0.0 0.00 0.00 0.00 65 1015.2
20260903214413 33 250 0.0 0.0 0.00 0.00 0.00 65 1015.2
20260903213912 33 262 0.0 0.0 0.00 0.00 0.00 66 1015.1
20260903213408 33 261 0.0 0.0 0.00 0.00 0.00 64 1015.2
20260903212904 33 302 0.0 0.0 0.00 0.00 0.00 64 1015.1
20260903212359 33 295 0.0 0.0 0.00 0.00 0.00 62 1014.9
20260903211859 33 251 0.0 0.0 0.00 0.00 0.00 64 1014.8
20260903211354 33 226 0.0 0.0 0.00 0.00 0.00 64 1015.2
20260903210850 33 260 0.0 0.0 0.00 0.00 0.00 61 1014.9
20260903210345 33 252 0.0 0.0 0.00 0.00 0.00 61 1015.1
20260903205844 33 240 0.0 0.0 0.00 0.00 0.00 63 1015.5
20260903205344 33 247 0.0 1.6 0.00 0.00 0.00 62 1015.4
20260903204839 33 245 0.0 0.0 0.00 0.00 0.00 64 1015.6
20260903204335 33 168 0.0 0.0 0.00 0.00 0.00 61 1015.3
20260903203751 33 254 0.0 0.0 0.00 0.00 0.00 60 1016.0
20260903203247 33 254 0.0 0.0 0.00 0.00 0.00 60 1016.0
20260903202745 33 250 0.0 0.0 0.00 0.00 0.00 61 1016.1
20260903202242 33 306 0.0 0.0 0.00 0.00 0.00 63 1015.9
20260903201741 33 256 0.0 0.0 0.00 0.00 0.00 61 1016.0
20260903201236 33 254 0.0 1.6 0.00 0.00 0.00 61 1016.3
20260903200735 33 257 0.0 0.0 0.00 0.00 0.00 60 1016.3
20260903200231 33 190 0.0 0.0 0.00 0.00 0.00 59 1016.3
20260903195726 34 247 0.0 0.0 0.00 0.00 0.00 61 1016.3
20260903195222 33 234 0.0 0.0 0.00 0.00 0.00 61 1016.7
20260903194722 33 307 0.0 0.0 0.00 0.00 0.00 59 1016.4
20260903194218 33 261 0.0 1.6 0.00 0.00 0.00 60 1016.7
20260903193713 33 261 0.0 0.0 0.00 0.00 0.00 60 1016.6
20260903193208 33 251 0.0 0.0 0.00 0.00 0.00 63 1016.6
20260903192704 33 306 0.0 0.0 0.00 0.00 0.00 64 1016.7
20260903192200 33 242 0.0 0.0 0.00 0.00 0.00 62 1016.9
20260903191656 33 271 0.0 0.0 0.00 0.00 0.00 62 1016.8
20260903191155 33 270 0.0 0.0 0.00 0.00 0.00 61 1016.6
20260903190650 33 242 0.0 0.0 0.00 0.00 0.00 62 1016.8
20260903190145 33 303 0.0 0.0 0.00 0.00 0.00 61 1016.8
20260903185640 33 303 0.0 0.0 0.00 0.00 0.00 67 1017.1
20260903185135 33 0 0.0 0.0 0.00 0.00 0.00 63 1017.1
20260903184631 33 305 0.0 0.0 0.00 0.00 0.00 67 1017.2
20260903184127 33 304 0.0 0.0 0.00 0.00 0.00 65 1017.4
20260903183625 32 242 0.0 0.0 0.00 0.00 0.00 66 1017.5
20260903183121 32 253 0.0 0.0 0.00 0.00 0.00 66 1017.6
20260903182620 32 253 0.0 0.0 0.00 0.00 0.00 64 1017.5
20260903182116 32 293 0.0 0.0 0.00 0.00 0.00 67 1017.6
20260903181614 33 237 0.0 0.0 0.00 0.00 0.00 64 1017.4
20260903181108 33 253 0.0 0.0 0.00 0.00 0.00 65 1017.5
20260903180604 33 352 0.0 0.0 0.00 0.00 0.00 66 1017.5
20260903180058 32 290 0.0 0.0 0.00 0.00 0.00 64 1017.7
20260903175557 32 255 0.0 0.0 0.00 0.00 0.00 65 1017.7
20260903175052 33 303 0.0 0.0 0.00 0.00 0.00 66 1017.7
20260903174552 32 268 0.0 0.0 0.00 0.00 0.00 73 1017.6
20260903174047 32 176 0.0 1.6 0.00 0.00 0.00 68 1017.8
20260903173541 32 279 0.0 0.0 0.00 0.00 0.00 66 1017.9
20260903173038 32 249 0.0 0.0 0.00 0.00 0.00 67 1017.8
20260903172532 32 224 0.0 0.0 0.00 0.00 0.00 68 1017.9
20260903172028 32 244 0.0 0.0 0.00 0.00 0.00 68 1017.9
20260903171523 32 11 0.0 0.0 0.00 0.00 0.00 70 1017.9
20260903171018 32 308 0.0 0.0 0.00 0.00 0.00 70 1018.0
20260903170517 32 301 0.0 0.0 0.00 0.00 0.00 68 1018.1
20260903170013 32 308 0.0 1.6 0.00 0.00 0.00 69 1018.1
20260903165510 32 264 0.0 0.0 0.00 0.00 0.00 71 1018.0
20260903165006 31 202 0.0 0.0 0.00 0.00 0.00 69 1018.3
20260903164455 31 234 0.0 0.0 0.00 0.00 0.00 68 1018.3
20260903163956 31 246 0.0 0.0 0.00 0.00 0.00 67 1018.3
20260903163451 31 358 0.0 0.0 0.00 0.00 0.00 70 1018.1
20260903162947 32 287 0.0 0.0 0.00 0.00 0.00 70 1018.2
20260903162443 31 249 0.0 0.0 0.00 0.00 0.00 71 1018.2
20260903161938 31 247 0.0 1.6 0.00 0.00 0.00 70 1018.5
20260903161434 31 299 0.0 0.0 0.00 0.00 0.00 70 1018.2
20260903160930 31 289 0.0 0.0 0.00 0.00 0.00 73 1018.4
20260903160429 31 246 0.0 0.0 0.00 0.00 0.00 71 1018.7
20260903155928 31 286 0.0 0.0 0.00 0.00 0.00 72 1018.4
20260903155423 31 286 0.0 0.0 0.00 0.00 0.00 74 1018.6
20260903154919 31 264 0.0 0.0 0.00 0.00 0.00 75 1018.5
20260903154414 31 161 0.0 0.0 0.00 0.00 0.00 73 1018.6
20260903153914 30 234 0.0 0.0 0.00 0.00 0.00 74 1018.7
20260903153410 30 242 0.0 0.0 0.00 0.00 0.00 72 1018.5
20260903152906 30 274 0.0 0.0 0.00 0.00 0.00 75 1018.5
20260903152401 30 175 0.0 0.0 0.00 0.00 0.00 76 1018.8
20260903151857 30 304 0.0 0.0 0.00 0.00 0.00 77 1018.7
20260903151352 30 269 0.0 0.0 0.00 0.00 0.00 77 1018.8
20260903150852 30 275 0.0 0.0 0.00 0.00 0.00 77 1018.7
20260903150347 30 244 0.0 0.0 0.00 0.00 0.00 76 1018.7
20260903145841 29 248 0.0 0.0 0.00 0.00 0.00 78 1018.8
20260903145337 29 274 0.0 0.0 0.00 0.00 0.00 78 1018.7
20260903144836 29 163 0.0 0.0 0.00 0.00 0.00 78 1018.8
20260903144331 29 152 0.0 0.0 0.00 0.00 0.00 80 1018.7
20260903143826 28 171 0.0 0.0 0.00 0.00 0.00 81 1018.7
20260903143323 28 205 0.0 0.0 0.00 0.00 0.00 81 1018.7
20260903142819 28 246 0.0 0.0 0.00 0.00 0.00 81 1018.8
20260903142315 28 155 0.0 0.0 0.00 0.00 0.00 80 1018.7
20260903141810 28 117 0.0 0.0 0.00 0.00 0.00 83 1018.8